Location: ?
(35.4064°N, 139.3593°E)
Time: 04:25:07
(UTC+00:00)

Cosmos 1626 - Pass Details

Date: 18 April 2024
Orbit: 409 x 413 km, 82.5° (Epoch: 20 May)

Event Time Altitude Azimuth Distance (km) Brightness Sun altitude
Exits shadow 18:48:58 18° 300° (WNW) 1,124 3.6 -15.4°
Drops below altitude 10° 18:50:44 10° 331° (NNW) 1,525 4.6 -15.1°
Sets 18:53:12 0° 350° (N) 2,401 5.8 -14.6°
